Flag Weather past 2 weeks in Puerto Vallarta, Jalisco, Mexico

Now
84 °F

Scattered clouds.


Feels Like: 83 °F
Forecast: N/A
Wind: 5 mph from Southwest

Location: Puerto Vallarta / Lic

Current Time: Nov 27, 2014 at 2:53:55 PM

Latest Report: Nov 27, 2014 at 1:45 PM


Visibility: 15 mi

Pressure: 29.86 "Hg

Humidity: 40%

Dew point: 57 °F

Location of Puerto VallartaLocation

Historic Weather in Puerto Vallarta — Graph

°F

Puerto Vallarta temperature yesterday

Maximum temperature yesterday: 90 °F (at 12:46 PM)
Minimum temperature yesterday: 59 °F (at 5:47 AM)
Average temperature yesterday: 71 °F

Past Weeks' High & Low Weather Summary

 TemperatureHumidityPressure
High90 °F (Nov 26, 12:46 PM)100% (Nov 13, 1:45 AM)30.03 "Hg (Nov 13, 1:45 AM)
Low59 °F (Nov 26, 5:47 AM)24% (Nov 26, 12:46 PM)29.82 "Hg (Nov 23, 4:43 PM)
Average74 °F80%29.93 "Hg
* Reported Nov 12 1:46 PM — Nov 27 1:45 PM, Puerto Vallarta, Weather by CustomWeather, © 2014

Note: Actual official high and low records may vary slightly from our data, if they occured in-between our weather recording intervals... More about our weather records

Advertising

Puerto Vallarta weather history for previous 24 hours

 ConditionsComfort  
Time TempWeatherWind HumidityBarometerVisibility
1:45 PM
Nov 27
84 °FScattered clouds.5 mph40%29.86 "Hg15 mi
12:50 PM84 °FBroken clouds.7 mph43%29.89 "Hg15 mi
8:45 AM63 °FBroken clouds.No wind73%29.91 "Hg15 mi
7:47 AM59 °FBroken clouds.No wind82%29.92 "Hg12 mi
6:47 AM63 °FOvercast.5 mph68%29.91 "Hg12 mi
5:46 AM63 °FPassing clouds.7 mph68%29.90 "Hg12 mi
4:45 AM61 °FClear.5 mph77%29.91 "Hg12 mi
2:47 AM61 °FClear.7 mph77%29.93 "Hg12 mi
11:45 PM
Nov 26
64 °FPassing clouds.7 mph78%29.97 "Hg12 mi
10:45 PM66 °FPassing clouds.5 mph78%29.99 "Hg12 mi
8:51 PM68 °FPassing clouds.3 mph83%29.96 "Hg12 mi
7:49 PM72 °FPassing clouds.No wind73%29.95 "Hg12 mi
6:49 PM73 °FPassing clouds.No wind78%29.92 "Hg15 mi
4:47 PM82 °FPartly sunny.5 mph51%29.89 "Hg15 mi
3:47 PM84 °FScattered clouds.7 mph40%29.88 "Hg15 mi
2:50 PM86 °FScattered clouds.7 mph40%29.87 "Hg15 mi
Weather by CustomWeather, © 2014

See weather overviewHow to use our weather pages